[[{"header":{"parameterUnit":"m.s-1","parameterCategory":1,"la1":30.2991,"la2":30.254,"lo1":-89.0895,"lo2":-89.0444,"dy":0.0017,"dx":0.0017,"nx":28,"ny":28,"refTime":"2025-12-30T03:00:00:Z","depth":0,"parameterNumber":2,"parameterNumberName":"U-component_of_WINDS"},"data":[0,0,0,0,0,0,0,0,0,0,0,0,0,0,0,0,0,0,0,0,0,0,0,0,0,0,0,0,0,0,0,0,0,0,0,0,0,0,0,0,0,0,0,0,0,0,0,0,0,0,0,0,0,0,0,0,0,0,3.361,3.3611,0,3.37,3.3701,3.3702,3.3671,3.3669,3.3667,3.3665,3.3761,3.3765,3.377,0,0,0,0,0,0,0,0,0,0,0,0,0,3.3416,3.342,3.361,3.3611,3.3612,3.3699,3.3701,3.3702,3.3672,3.3669,3.3667,3.3664,3.376,3.3765,3.377,0,0,0,0,0,0,0,0,0,0,0,0,0,3.3503,3.3421,3.361,3.3607,3.3608,3.3699,3.3701,3.3702,3.3672,3.3669,3.3666,3.3663,3.3758,3.3764,3.3771,3.3871,0,0,3.3791,3.3794,0,0,0,0,0,0,0,0,3.3498,3.351,3.3607,3.3608,3.3609,3.3671,3.3668,3.3759,3.3673,3.3648,3.3665,3.3662,3.3734,3.3742,3.3766,3.3875,3.3879,3.3792,3.3796,3.3798,3.38,0,0,0,0,0,0,0,3.3492,3.3506,3.3645,3.3608,3.3609,3.3603,3.3612,3.3685,3.3707,3.365,3.3648,3.3659,3.3734,3.3759,3.3768,3.3881,3.3791,3.3797,3.3801,3.3804,3.4079,3.4082,0,0,0,0,0,0,3.3485,3.3501,3.3642,3.3648,3.3545,3.3609,3.3619,3.3654,3.3706,3.3711,3.3661,3.3657,3.375,3.376,3.3771,3.3893,3.3798,3.3805,3.3808,3.4075,3.408,3.4083,0,0,0,0,0,0,3.3481,3.3498,3.3639,3.3574,3.3592,3.3616,3.3655,3.3657,3.3683,3.3714,3.3718,3.3683,3.3748,3.3762,3.3846,3.3895,3.3808,3.3814,3.4072,3.4077,3.4081,3.4136,0,0,0,0,0,0,3.3475,3.3496,3.3534,3.3575,3.3595,3.3712,3.3658,3.3661,3.3694,3.3689,3.3736,3.3741,3.3746,3.3837,3.3853,3.3903,3.3819,3.4067,3.4074,3.408,3.413,3.4142,3.4152,0,0,0,0,0,3.3469,3.3546,3.3536,3.3553,3.3642,3.3714,3.3726,3.373,3.3698,3.3736,3.3756,3.3739,3.3887,3.3846,3.3864,3.3916,3.4064,3.4072,3.4079,3.4125,3.414,3.4152,0,0,0,0,0,0,3.3511,3.3551,3.354,3.3633,3.367,3.3709,3.3758,3.3746,3.3794,3.3788,3.3792,3.3803,3.389,3.3912,3.3864,3.4017,3.3971,3.3983,3.3999,3.4014,3.4025,3.4019,3.3824,0,0,0,0,0,3.353,3.3585,3.3618,3.3697,3.3716,3.3734,3.3765,3.3765,3.3805,3.3821,3.3847,3.3887,3.3943,3.3979,3.4032,3.4132,3.4143,3.4178,3.4189,3.4198,3.4209,3.4265,3.4281,3.4108,3.4108,3.4108,0,0,3.3573,3.3601,3.3636,3.3706,3.3735,3.3792,3.3747,3.381,3.3853,3.383,3.3912,3.3933,3.3978,3.4071,3.4114,3.4092,3.4259,3.4208,3.4215,3.422,3.4274,3.4291,3.4305,3.4113,3.4112,3.4111,0,0,3.3679,3.3705,3.3774,3.3804,3.3848,3.386,3.3876,3.3917,3.393,3.4011,3.3996,3.4048,3.4144,3.4177,3.4206,3.4326,3.4312,3.4343,3.4403,3.4458,3.4472,3.4484,3.4528,3.4543,3.4353,3.4353,3.4353,0,3.3726,3.3811,3.3812,3.3876,3.3908,3.3889,3.396,3.3989,3.4049,3.4072,3.4047,3.4167,3.4196,3.4297,3.4326,3.435,3.4371,3.4338,3.4469,3.4481,3.4493,3.4535,3.4551,3.4357,3.4356,3.4356,3.4356,0,3.3867,3.3926,3.3977,3.4034,3.4072,3.4139,3.4152,3.419,3.4187,3.4202,3.4286,3.432,3.438,3.4404,3.4402,3.4506,3.4491,3.4467,3.4422,3.4513,3.4553,3.4569,3.4362,3.436,3.4359,3.4358,0,0,3.4003,3.4059,3.4078,3.4105,3.4152,3.4199,3.4266,3.4323,3.4357,3.4399,3.4456,3.4538,3.4516,3.455,3.4551,3.4599,3.4693,3.457,3.4571,3.4593,3.4812,3.483,3.4849,3.4684,3.4687,3.469,3.4808,0,3.4114,3.423,3.4234,3.4341,3.4397,3.438,3.4439,3.4475,3.4491,3.4542,3.4559,3.4617,3.4584,3.4604,3.4651,3.4672,3.4738,3.4663,3.474,3.4742,3.473,3.4869,3.4889,3.4999,3.4824,3.4826,3.4828,0,3.4259,3.4305,3.4417,3.4458,3.4481,3.4534,3.4587,3.4635,3.4677,3.4685,3.4723,3.4717,3.4788,3.4739,3.4837,3.4787,3.4818,3.4833,3.4838,3.4846,3.4792,3.4883,3.5034,3.5051,3.4853,3.4851,3.4849,0,3.4348,3.4438,3.4517,3.454,3.4589,3.4626,3.4649,3.4687,3.4722,3.4769,3.4792,3.4847,3.4878,3.4922,3.4932,3.4896,3.5031,3.4983,3.5041,3.5041,3.5071,3.5069,3.5231,3.509,3.5089,3.5089,3.5089,0,3.4473,3.4543,3.4558,3.4607,3.4686,3.4689,3.4767,3.4787,3.4822,3.4875,3.4864,3.4915,3.4925,3.4979,3.4987,3.5068,3.5082,3.5092,3.5093,3.5093,3.5092,3.5115,3.5108,3.5093,3.5092,3.5092,3.5091,0,3.4586,3.4599,3.4685,3.4724,3.4735,3.4791,3.4825,3.4873,3.4887,3.4956,3.4972,3.4995,3.5058,3.5072,3.5146,3.5152,3.5249,3.5242,3.5234,3.5234,3.5292,3.5287,3.5475,3.5501,3.5341,3.5343,3.5344,0,3.4665,3.4719,3.4763,3.4798,3.4822,3.4877,3.4913,3.4919,3.4956,3.5008,3.505,3.5111,3.516,3.5261,3.5286,3.5343,3.5339,3.5401,3.5348,3.5346,3.5342,3.5339,3.5345,3.5412,3.5413,3.5415,3.5416,0,3.4805,3.4809,3.4859,3.4913,3.4955,3.4997,3.5038,3.5067,3.5079,3.5122,3.5185,3.5223,3.5299,3.5361,3.5418,3.5443,3.5433,3.5432,3.5449,3.545,3.5444,3.5449,3.5263,3.5428,3.5427,3.5426,3.5425,3.5425,3.4905,3.4952,3.4991,3.5048,3.5079,3.5117,3.5164,3.5184,3.5236,3.5298,3.5298,3.5368,3.5409,3.5485,3.5513,3.5569,3.555,3.5574,3.558,3.5586,3.5592,3.5434,3.5579,3.5579,3.5579,3.5578,3.5578,0,3.5045,3.5069,3.5121,3.5178,3.5223,3.5208,3.5252,3.5291,3.5352,3.5391,3.5439,3.5513,3.5572,3.5601,3.5661,3.57,3.5697,3.5715,3.5713,3.5719,3.5605,3.5585,3.5717,3.5717,3.5717,3.5717,3.5717,3.5717,3.5123,3.5202,3.5211,3.5306,3.533,3.5397,3.5424,3.546,3.5491,3.5573,3.5622,3.564,3.5675,3.5737,3.5792,3.5799,3.5822,3.5844,3.5849,3.5741,3.5727,3.5714,3.5695,3.5848,3.5848,3.5958,3.5959,3.596]},{"header":{"parameterUnit":"m.s-1","parameterCategory":1,"la1":30.2991,"la2":30.254,"lo1":-89.0895,"lo2":-89.0444,"dy":0.0017,"dx":0.0017,"nx":28,"ny":28,"refTime":"2025-12-30T03:00:00:Z","depth":0,"parameterNumber":3,"parameterNumberName":"V-component_of_WINDS"},"data":[0,0,0,0,0,0,0,0,0,0,0,0,0,0,0,0,0,0,0,0,0,0,0,0,0,0,0,0,0,0,0,0,0,0,0,0,0,0,0,0,0,0,0,0,0,0,0,0,0,0,0,0,0,0,0,0,0,0,0.5487,0.5487,0,0.5506,0.5507,0.5507,0.5516,0.5516,0.5516,0.5516,0.5535,0.5536,0.5536,0,0,0,0,0,0,0,0,0,0,0,0,0,0.5454,0.5455,0.5487,0.5487,0.5487,0.5506,0.5507,0.5507,0.5516,0.5516,0.5516,0.5516,0.5535,0.5536,0.5536,0,0,0,0,0,0,0,0,0,0,0,0,0,0.5471,0.5455,0.5486,0.5494,0.5495,0.5506,0.5507,0.5507,0.5516,0.5516,0.5516,0.5516,0.5535,0.5536,0.5536,0.5542,0,0,0.5539,0.5539,0,0,0,0,0,0,0,0,0.547,0.5472,0.5493,0.5494,0.5495,0.5509,0.5502,0.5519,0.5516,0.5508,0.5516,0.5516,0.5526,0.5528,0.5532,0.5543,0.5543,0.5539,0.5539,0.554,0.554,0,0,0,0,0,0,0,0.5468,0.5471,0.5494,0.5493,0.5494,0.5496,0.5498,0.5505,0.5517,0.5509,0.5509,0.5512,0.5527,0.5531,0.5532,0.5544,0.5539,0.554,0.554,0.554,0.5557,0.5557,0,0,0,0,0,0,0.5466,0.547,0.5494,0.5495,0.5482,0.5496,0.5499,0.5504,0.5517,0.5519,0.5512,0.5512,0.553,0.5531,0.5533,0.5538,0.554,0.554,0.5541,0.5557,0.5557,0.5557,0,0,0,0,0,0,0.5466,0.5468,0.5493,0.5483,0.5486,0.5497,0.5503,0.5505,0.5509,0.5519,0.5521,0.5514,0.553,0.5532,0.5539,0.5539,0.5541,0.5542,0.5557,0.5557,0.5557,0.555,0,0,0,0,0,0,0.5465,0.5468,0.5471,0.5483,0.5486,0.5499,0.5503,0.5505,0.551,0.5511,0.5522,0.5524,0.553,0.5538,0.554,0.554,0.5542,0.5557,0.5557,0.5557,0.5551,0.555,0.555,0,0,0,0,0,0.5464,0.5468,0.5471,0.5474,0.549,0.55,0.5502,0.5509,0.551,0.5512,0.5519,0.5523,0.5539,0.5538,0.5541,0.5542,0.5557,0.5557,0.5557,0.5551,0.555,0.555,0,0,0,0,0,0,0.5457,0.547,0.5473,0.5482,0.549,0.5501,0.5505,0.5508,0.5516,0.5516,0.5524,0.5527,0.5533,0.5538,0.5537,0.5546,0.5548,0.5549,0.5543,0.5542,0.5542,0.554,0.5543,0,0,0,0,0,0.5456,0.5463,0.5474,0.5481,0.5485,0.5494,0.5498,0.5503,0.5511,0.5514,0.5521,0.5528,0.5535,0.5539,0.5545,0.5551,0.5553,0.5553,0.5552,0.5552,0.5552,0.5554,0.5554,0.5557,0.5557,0.5557,0,0,0.5455,0.5464,0.5468,0.548,0.5486,0.5492,0.5496,0.5503,0.5508,0.5515,0.5522,0.5527,0.5536,0.5542,0.5545,0.5546,0.5551,0.5552,0.5551,0.5552,0.5554,0.5553,0.5553,0.5557,0.5557,0.5557,0,0,0.5457,0.5464,0.547,0.5476,0.5485,0.5491,0.5492,0.5503,0.5506,0.5513,0.5519,0.5523,0.5535,0.554,0.5544,0.5545,0.5548,0.5547,0.5544,0.5546,0.5545,0.5545,0.5544,0.5544,0.5547,0.5547,0.5547,0,0.5455,0.5465,0.5472,0.5478,0.5483,0.5489,0.5494,0.55,0.5511,0.5513,0.5515,0.5527,0.5534,0.554,0.554,0.5544,0.5544,0.5546,0.5545,0.5545,0.5545,0.5544,0.5544,0.5546,0.5546,0.5546,0.5546,0,0.5461,0.5467,0.5471,0.5481,0.5486,0.5491,0.5498,0.5502,0.5506,0.5511,0.5517,0.5525,0.5532,0.5534,0.5538,0.554,0.5541,0.5543,0.5546,0.5544,0.5543,0.5543,0.5546,0.5546,0.5546,0.5546,0,0,0.546,0.5473,0.5474,0.5477,0.5487,0.5492,0.5497,0.5504,0.5506,0.5513,0.5517,0.5525,0.5527,0.5531,0.5536,0.5537,0.5536,0.554,0.554,0.5538,0.5537,0.5535,0.5535,0.5538,0.5538,0.5538,0.5536,0,0.5462,0.5472,0.5478,0.5485,0.549,0.5495,0.5499,0.5505,0.5509,0.5514,0.5518,0.5524,0.5527,0.5529,0.5531,0.5536,0.5536,0.5536,0.5541,0.5541,0.5538,0.5535,0.5533,0.553,0.5536,0.5536,0.5536,0,0.5467,0.5473,0.548,0.5487,0.549,0.5493,0.5499,0.5504,0.551,0.5512,0.5517,0.5521,0.5525,0.5526,0.5531,0.5531,0.5533,0.5536,0.5536,0.5536,0.5538,0.5534,0.553,0.553,0.5536,0.5536,0.5536,0,0.5464,0.5474,0.5479,0.5482,0.5491,0.5493,0.5497,0.5503,0.5506,0.5511,0.5513,0.5518,0.5521,0.5524,0.5529,0.553,0.5533,0.5535,0.5534,0.5534,0.5535,0.5535,0.553,0.5537,0.5537,0.5537,0.5537,0,0.5466,0.547,0.5478,0.5481,0.5485,0.5491,0.5494,0.5499,0.5503,0.5506,0.5511,0.5514,0.552,0.5523,0.5527,0.553,0.5531,0.5533,0.5534,0.5532,0.5532,0.5534,0.5534,0.5537,0.5537,0.5537,0.5537,0,0.5464,0.547,0.5475,0.5483,0.5485,0.5487,0.5493,0.5496,0.5499,0.5503,0.5504,0.5511,0.5514,0.5519,0.5525,0.5527,0.5529,0.553,0.5527,0.5527,0.5526,0.5525,0.5522,0.5521,0.5529,0.5529,0.5528,0,0.5465,0.5468,0.5475,0.5477,0.5481,0.5485,0.5488,0.5493,0.5496,0.5501,0.5503,0.5507,0.551,0.5516,0.552,0.5524,0.5525,0.5524,0.5526,0.5524,0.5524,0.5524,0.5523,0.5523,0.5523,0.5523,0.5523,0,0.5465,0.5467,0.5472,0.5476,0.5479,0.5483,0.5487,0.5489,0.5495,0.5497,0.5501,0.5503,0.5508,0.5511,0.5515,0.5518,0.5521,0.5522,0.5522,0.552,0.5517,0.5518,0.5525,0.5522,0.5522,0.5522,0.5522,0.5522,0.5464,0.5466,0.5471,0.5475,0.5478,0.5482,0.5484,0.5488,0.5491,0.5495,0.5498,0.5501,0.5505,0.551,0.5512,0.5514,0.5515,0.5516,0.5515,0.5515,0.5514,0.5517,0.5515,0.5515,0.5515,0.5515,0.5515,0,0.5464,0.5467,0.547,0.5475,0.5478,0.548,0.5484,0.5486,0.5489,0.5492,0.5495,0.5498,0.5501,0.5505,0.5507,0.5508,0.5509,0.5508,0.5508,0.5508,0.5513,0.5513,0.5507,0.5507,0.5507,0.5507,0.5507,0.5507,0.5464,0.5467,0.547,0.5474,0.5477,0.548,0.5482,0.5484,0.5486,0.549,0.5492,0.5494,0.5497,0.55,0.5502,0.5503,0.5503,0.5502,0.5503,0.5508,0.5508,0.5509,0.5509,0.5502,0.5502,0.5498,0.5498,0.5498]}]]